Regional Weather Roundup
Issued by NWS

Home | Current Version | Previous Version | Graphics & Text | Print | Product List | Glossary On
Versions: 1 2 3 4 5 6 7 8 9 10 11 12 13 14 15 16 17 18 19 20 21 22 23 24 25 26 27 28 29 30 31 32 33 34 35 36 37 38 39 40 41 42 43 44 45 46 47 48 49 50
874
ASUS44 KJAN 221410
RWRMS

MISSISSIPPI HOURLY WEATHER ROUNDUP
NATIONAL WEATHER SERVICE JACKSON MS
900 AM CDT FRI AUG 22 2014

NOTE: "FAIR: INDICATES FEW OR NO CLOUDS BELOW 12,000 FEET WITH NO
SIGNIFICANT WEATHER AND/OR OBSTRUCTIONS TO VISIBILITY.

MSZ001>002-007>008-010>013-018>021-025>028-034>036-221500-
NORTHWEST MISSISSIPPI

CITY           SKY/WX    TMP DP  RH WIND       PRES   REMARKS
CLARKSDALE     FAIR      81  75  83 CALM      30.11S
CLEVELAND      FAIR      80  75  86 W6        30.10S
GREENWOOD      SUNNY     80  73  79 SW3       30.11S
GREENVILLE     SUNNY     82  75  79 SW7       30.10R
GRENADA        FAIR      79  72  78 W6        30.12S
OLIVE BRANCH   MOSUNNY   79  79 100 W7        30.11S
OXFORD         FAIR      79  72  78 W3        30.14R
TUNICA         SUNNY     79  73  83 SW5       30.11R
$$

MSZ003>006-009-014>017-022>024-029>033-037>039-221500-
NORTHEAST MISSISSIPPI

CITY           SKY/WX    TMP DP  RH WIND       PRES   REMARKS
BELMONT        FAIR      79  73  82 W5        30.14R
COLUMBUS AFB   SUNNY     82  71  68 NW7       30.13R
CORINTH        FAIR      82  72  69 W5        30.11S
GOLDN TRIANGLE SUNNY     82  70  65 NW7       30.14R
STARKVILLE     FAIR      81  72  74 NW3       30.13S
TUPELO         SUNNY     83  72  69 CALM      30.12R
$$

MSZ040-058-221500-
CENTRAL MISSISSIPPI

CITY           SKY/WX    TMP DP  RH WIND       PRES   REMARKS
JACKSON INTL   SUNNY     81  75  82 VRB7      30.13S
JACKSON HAWKNS SUNNY     82  75  79 W9        30.14R
MERIDIAN KEY   SUNNY     83  71  67 NW7       30.13R
MERIDIAN NAS   MOSUNNY   82  72  71 NW6       30.14R
RAYMOND        FAIR      81  75  83 W7        30.13F HAZE
VICKSBURG      MOSUNNY   80  75  84 CALM      30.12R
$$

MSZ059>079-221500-
SOUTH MISSISSIPPI

CITY           SKY/WX    TMP DP  RH WIND       PRES   REMARKS
BROOKHAVEN     FAIR      79  75  89 W6        30.16S
COLUMBIA       FAIR      82  75  78 MISG      30.13R
HATTIESBURG    SUNNY     83  73  72 N6        30.14R
MCCOMB         MOSUNNY   81  75  82 NW7       30.14R
NATCHEZ        SUNNY     81  75  83 SW5       30.14R
PINE BELT      SUNNY     82  72  69 NW7       30.15S
$$

MSZ080>082-221500-
COASTAL MISSISSIPPI

CITY           SKY/WX    TMP DP  RH WIND       PRES   REMARKS
BAY ST LOUIS   SUNNY    N/A N/A N/A VRB6      30.11S
BILOXI         SUNNY     84  73  71 VRB3      30.11S HX  90
PASCAGOULA     SUNNY     84  75  74 N5        30.11S HX  92
GULFPORT       SUNNY     84  73  69 N7        30.10S HX  90
$$



USA.gov is the U.S. government's official web portal to all federal, state and local government web resources and services.